This is the latest recevied weather packets stored in our database for station/object KB1RMA-13. If no packets are shown the sender has not sent any weather packets the latest 10 day(s).
| Time | Temp. | Humidity | Pressure | Rain* | Wind** | Luminosity | Snow |
|---|---|---|---|---|---|---|---|
| 1777578142 | 9.44° C | 98% | 1006.6 hPa | 0 mm | - | 92 W/m² | - |
| 1777577838 | 10° C | 98% | 1006.4 hPa | 0 mm | - | 101 W/m² | - |
| 1777577534 | 10° C | 99% | 1006.4 hPa | 0 mm | - | 376 W/m² | - |
| 1777577231 | 10° C | 99% | 1006.5 hPa | 0 mm | - | 376 W/m² | - |
| 1777576927 | 10° C | 99% | 1006.3 hPa | 0 mm | - | 376 W/m² | - |
| 1777576622 | 10° C | 99% | 1006.6 hPa | 0 mm | - | 376 W/m² | - |
| 1777576318 | 10° C | 99% | 1006.4 hPa | 0 mm | - | 342 W/m² | - |
| 1777576014 | 10° C | 99% | 1006.3 hPa | 0 mm | - | 318 W/m² | - |
| 1777575711 | 10° C | 99% | 1006.6 hPa | 0 mm | - | 317 W/m² | - |
| 1777575407 | 9.44° C | 99% | 1006.8 hPa | 0 mm | - | 152 W/m² | - |
| 1777575103 | 10.56° C | 99% | 1006.8 hPa | 0 mm | - | 219 W/m² | - |
| 1777574798 | 10.56° C | 99% | 1006.8 hPa | 0 mm | - | 228 W/m² | - |
| 1777574497 | 10.56° C | 99% | 1007.1 hPa | 0 mm | - | 173 W/m² | - |
| 1777574192 | 10° C | 99% | 1006.7 hPa | 0 mm | - | 158 W/m² | - |
| 1777573887 | 10° C | 99% | 1007 hPa | 0 mm | - | 124 W/m² | - |
| 1777573582 | 10° C | 98% | 1006.9 hPa | 0 mm | - | 124 W/m² | - |
| 1777573279 | 10.56° C | 98% | 1007 hPa | 0 mm | - | 162 W/m² | - |
| 1777572975 | 10° C | 99% | 1007.2 hPa | 0 mm | - | 141 W/m² | - |
| 1777572671 | 10° C | 99% | 1007.1 hPa | 0 mm | - | 123 W/m² | - |
| 1777572371 | 10° C | 99% | 1007.5 hPa | 0 mm | - | 118 W/m² | - |
| 1777572068 | 10° C | 99% | 1007.6 hPa | 0 mm | - | 68 W/m² | - |
| 1777571767 | 10° C | 99% | 1007.5 hPa | 0 mm | - | 88 W/m² | - |
| 1777571465 | 10° C | 98% | 1007.7 hPa | 0 mm | - | 89 W/m² | - |
| 1777571161 | 10° C | 99% | 1007.7 hPa | 0 mm | - | 124 W/m² | - |
| 1777570857 | 10° C | 99% | 1007.5 hPa | 0 mm | - | 97 W/m² | - |
* Rain latest hour (hover to see other rain measurements)
** Current wind speed in m/s (hover to see current wind gust speed)